Вернуться в каталог

DELTA 1 R/B

АктивенLEO
NORAD 50·ROCKET BODY·🇺🇸 United States

Запущен Aug 12, 1960 с Cape Canaveral Space Force Station

Loading…

Ближайшие Пролёты (ближайшие 24 часа)

TLE

СвежийSource: Space-Track

Эпоха: Sep 14, 2026, 01:32 UTC

1 00050U 60009B   26257.06421044 -.00000128  00000-0 -41225-3 0  9993
2 00050  47.2296 245.8550 0114405 279.9184  78.8708 12.20169627948556

Отслеживайте DELTA 1 R/B в реальном времени с AllMySat

Download on the App Store